Starlink 11699

operational
NORAD ID: 63762 Int'l Des: 2025-089 Owner: SPXS Country: US Constellation: starlink
LEOCIRCULAR

Über Starlink 11699

Beschreibung wird geladen...

Live-Position

3D-Globus wird geladen...

Nächste Überflüge

Höhenverlauf

Altitude vs Time

uPlot chart will show altitude changes over time

Zweizeiliger Elementsatz

1 63762U 25089M 26036.72334042 .00142173 00000-0 10925-2 0 9997
2 63762 42.9984 125.3172 0001340 305.6359 54.4384 15.70842560 45108
Epoch: 5. Feb. 2026 • Age: 18 hours

Aktueller Status

Höhe 367.3 km
Geschwindigkeit 7.69 km/s
Subsatellitenpunkt -39.45°S, 57.64°E
Startdatum 29. Apr. 2025
Alter 0.7 years
Typ internet

Technische Details

Klassifizierung Payload
Masse 960.00 kg
Trockenmasse 910.00 kg
Gesamtmasse 960.00 kg
Länge 0.30 m
Durchmesser 4.10 m
Spannweite 29.00 m
Form Box + pan
Hersteller SPXS
Bus-Typ Starlink V2MD
Phasenstatus In Orbit
Besitzer/Staat SPXS/US

Große Konstellationen

Loading constellations...